Temp
20 20 20 19 16 15 17 21 23 23 23 24 25 25 21 22 21 19 19 19 19 19 19 18 18 19 19 19 19 19 18 18 18 17 16 16 17 17 17 17 17 17 17 17 17 17 16 17 16
19 20 19 20 15 16 17 22 21 21 24 25 25 25 23 21 20 19 19 19 19 19 19 19 18 18 19 19 19 19 19 18 17 17 17 16 17 17 17 17 16 17 17 17 17 16 16 16 16
19 19 19 16 15 17 19 21 21 23 24 24 24 25 22 21 21 19 19 19 19 19 19 19 18 18 19 18 18 18 18 18 18 17 17 16 16 16 16 16 17 16 16 17 17 17 16 15 15
19 19 20 17 18 19 22 20 22 23 24 24 24 21 20 20 20 19 20 19 19 18 19 19 18 18 18 18 18 18 17 17 17 17 17 16 16 16 16 16 16 16 16 17 16 16 16 16 15
18 19 16 17 18 20 22 22 24 22 22 23 24 21 19 19 20 19 20 20 19 19 19 19 19 18 18 17 17 17 17 17 17 17 17 17 16 16 16 16 16 16 16 16 16 16 16 15 15
18 19 16 16 18 21 22 23 23 23 23 23 23 21 19 19 19 19 20 20 19 20 19 19 19 19 18 17 17 17 17 17 16 16 16 17 17 16 16 16 16 16 16 16 16 16 15 15 14
18 16 17 18 18 20 23 23 21 22 22 22 22 20 18 19 18 19 19 20 19 18 18 18 18 18 18 18 17 17 17 16 16 16 16 16 16 16 16 16 16 16 16 16 15 15 14 14 14
19 16 18 18 19 21 22 22 22 22 21 22 22 20 17 19 19 19 20 20 20 18 18 17 17 17 17 17 17 16 16 16 16 16 16 15 15 16 15 15 15 16 16 15 15 15 14 14 14
19 15 15 19 19 20 22 21 22 22 22 22 22 21 20 20 20 20 20 20 20 18 18 17 17 17 17 17 16 16 16 16 15 15 15 15 15 15 15 15 15 15 15 15 15 15 14 14 13
17 14 18 21 21 20 21 21 21 21 20 21 21 20 20 20 19 19 19 19 18 18 17 17 17 16 16 17 16 16 15 15 15 14 14 13 13 14 14 15 15 15 15 15 15 15 15 14 14
18 16 19 21 21 21 20 20 21 21 19 21 20 20 20 20 19 19 19 18 18 18 18 17 17 17 17 17 16 16 15 15 14 14 14 15 14 13 13 13 14 14 14 15 14 14 14 14 14
18 19 20 20 21 20 20 20 20 20 21 21 21 20 19 19 19 19 19 19 18 18 18 17 17 16 16 16 16 16 16 16 14 14 14 15 14 14 13 13 13 14 14 14 14 14 14 14 14
18 19 21 21 21 20 20 19 19 20 21 21 20 21 20 19 19 19 18 18 18 18 18 17 17 17 16 15 16 16 16 16 15 15 13 14 14 14 14 13 13 13 14 14 13 14 14 14 13
20 20 20 20 20 20 19 19 19 20 21 21 20 20 19 19 18 18 18 18 17 17 17 17 17 17 17 16 15 16 16 16 15 15 15 14 14 15 15 14 13 12 13 13 13 13 14 14 14
20 18 17 18 20 19 20 17 17 21 20 20 19 19 19 19 18 18 18 18 17 17 17 17 16 16 16 15 15 15 16 16 16 15 15 15 15 16 15 15 13 13 12 13 13 14 14 14 14
17 17 16 17 19 20 19 15 17 21 21 20 20 19 19 19 18 18 18 17 16 17 16 17 16 14 15 15 14 14 14 16 15 15 16 15 15 15 15 15 13 12 12 13 13 14 14 14 14
15 14 15 17 19 18 18 16 17 20 21 20 20 20 20 19 17 17 16 16 16 15 15 15 15 15 14 14 14 13 12 13 14 15 15 15 15 14 15 14 13 12 13 12 13 13 14 14 13
14 15 17 17 19 18 17 15 16 20 20 20 20 20 19 17 16 15 15 15 16 15 14 14 14 14 14 13 13 13 12 13 13 13 14 14 14 13 14 14 13 13 12 11 12 13 13 13 12
16 16 16 17 19 18 16 16 16 18 20 18 18 19 16 16 15 15 16 16 16 14 12 13 13 13 13 13 13 13 13 13 13 13 13 13 14 14 13 13 13 12 11 12 12 13 13 12 12
16 16 16 17 19 19 17 16 16 16 18 19 18 16 15 14 15 16 15 13 12 12 12 12 12 12 12 12 13 13 13 13 13 13 13 13 14 14 14 13 12 12 11 12 12 12 12 12 12
17 17 16 16 18 17 17 15 16 17 16 17 16 15 15 15 15 13 11 10 10 11 11 11 12 11 11 12 13 12 12 12 13 13 13 13 13 12 13 13 12 12 12 12 12 12 12 12 12
16 18 18 18 16 14 16 12 15 17 14 14 14 14 13 13 12 11 10 10 10 11 11 11 11 11 11 12 13 13 13 13 12 13 14 13 12 12 12 12 12 12 12 12 12 12 12 12 11
17 19 18 18 16 14 15 13 12 14 13 12 12 12 12 12 11 10 10 10 10 10 11 11 12 11 11 12 12 13 13 12 12 13 13 11 11 13 12 12 12 11 12 12 12 12 12 12 11
18 17 17 16 13 11 13 13 12 14 14 13 12 11 12 11 10 10 10 11 10 10 10 11 11 11 11 11 12 12 12 12 12 13 11 10 11 12 11 12 12 11 11 11 12 12 12 12 12
16 13 9 12 9 10 15 13 14 16 14 15 12 11 11 11 10 10 10 10 10 10 10 11 11 11 11 11 11 11 11 12 11 11 10 10 10 10 11 11 11 11 11 10 11 12 11 12 12
14 13 9 11 10 11 14 13 15 16 14 14 12 12 11 10 10 10 10 9 10 9 9 10 11 11 11 11 11 11 12 11 10 9 10 10 10 10 10 10 10 10 10 10 11 11 11 11 11
14 14 14 13 12 10 11 14 16 13 13 12 11 11 10 10 9 9 9 9 9 9 9 9 10 10 10 10 11 11 11 11 10 10 9 9 9 10 11 10 10 9 10 10 10 11 11 11 11
15 15 13 11 12 13 12 14 14 12 12 12 11 10 10 10 9 9 9 9 9 9 8 9 9 9 10 11 10 10 11 10 9 9 9 9 9 10 10 9 9 9 9 10 10 10 10 10 10
15 15 15 13 11 12 13 14 15 14 13 12 11 10 10 10 10 9 9 8 9 9 9 8 8 9 10 10 10 10 9 10 10 10 9 9 9 9 9 9 9 9 9 10 10 10 10 10 10
17 16 15 11 13 12 12 14 16 14 13 13 12 11 11 10 9 9 8 8 9 9 8 8 8 9 9 10 10 9 9 9 9 10 9 9 9 9 9 9 9 8 9 9 10 10 10 9 9
Height
1519 1520 1520 1519 1530 1531 1534 1516 1502 1503 1506 1506 1507 1508 1512 1512 1515 1527 1518 1519 1518 1520 1522 1524 1526 1528 1530 1531 1533 1534 1535 1537 1537 1537 1539 1540 1541 1541 1543 1544 1544 1545 1545 1546 1547 1547 1547 1547 1548
1518 1519 1520 1520 1536 1543 1534 1506 1512 1507 1506 1507 1508 1506 1509 1518 1515 1518 1518 1520 1516 1519 1521 1524 1526 1528 1530 1531 1533 1534 1535 1537 1538 1539 1539 1541 1542 1543 1543 1545 1545 1546 1546 1548 1548 1549 1550 1549 1550
1516 1518 1520 1523 1533 1537 1527 1509 1508 1504 1506 1508 1509 1508 1511 1516 1516 1518 1519 1519 1517 1519 1521 1524 1525 1528 1529 1531 1532 1534 1536 1537 1537 1539 1539 1542 1542 1543 1545 1545 1547 1547 1548 1548 1550 1550 1551 1552 1552
1515 1519 1521 1526 1528 1517 1512 1509 1505 1505 1508 1509 1509 1511 1515 1517 1516 1517 1518 1518 1518 1519 1522 1524 1526 1528 1529 1531 1532 1533 1535 1537 1538 1538 1540 1542 1544 1544 1545 1546 1547 1548 1548 1549 1550 1550 1552 1553 1554
1516 1518 1525 1528 1522 1510 1508 1505 1505 1507 1510 1510 1510 1514 1517 1519 1517 1518 1518 1519 1519 1521 1523 1524 1525 1527 1528 1530 1531 1533 1535 1536 1538 1539 1540 1542 1544 1545 1546 1546 1547 1548 1549 1550 1551 1552 1553 1554 1555
1516 1517 1529 1533 1522 1506 1505 1505 1504 1508 1510 1510 1510 1513 1519 1520 1518 1518 1519 1519 1520 1519 1521 1522 1523 1524 1526 1528 1531 1532 1534 1536 1537 1538 1540 1542 1544 1545 1546 1547 1548 1548 1549 1550 1551 1553 1554 1554 1556
1516 1521 1526 1520 1520 1510 1504 1504 1506 1510 1511 1512 1511 1515 1520 1519 1518 1518 1519 1518 1519 1520 1522 1523 1522 1523 1525 1528 1530 1531 1533 1535 1536 1538 1540 1541 1543 1544 1546 1547 1548 1549 1549 1551 1553 1555 1556 1555 1556
1515 1518 1519 1516 1513 1510 1505 1504 1507 1510 1512 1512 1512 1515 1519 1518 1518 1517 1518 1519 1519 1519 1520 1522 1521 1523 1524 1526 1528 1531 1532 1534 1536 1538 1540 1541 1543 1544 1546 1547 1549 1549 1550 1551 1553 1555 1557 1557 1557
1515 1523 1527 1514 1510 1509 1504 1506 1508 1509 1510 1511 1513 1513 1514 1516 1516 1517 1516 1517 1519 1520 1520 1520 1521 1523 1524 1525 1527 1529 1530 1533 1535 1537 1540 1541 1542 1545 1546 1548 1549 1550 1551 1552 1553 1555 1557 1559 1558
1514 1523 1514 1505 1504 1506 1507 1506 1506 1509 1510 1511 1512 1511 1512 1513 1514 1515 1515 1516 1517 1518 1519 1519 1519 1520 1522 1522 1524 1525 1528 1530 1533 1534 1536 1538 1539 1543 1547 1549 1549 1550 1551 1552 1554 1555 1558 1560 1558
1513 1517 1508 1505 1504 1505 1506 1506 1505 1506 1509 1509 1511 1511 1511 1511 1512 1513 1514 1515 1515 1516 1517 1518 1518 1518 1518 1518 1520 1522 1524 1526 1528 1530 1531 1533 1537 1543 1546 1548 1549 1550 1551 1552 1553 1555 1558 1561 1558
1512 1508 1506 1505 1503 1505 1505 1504 1504 1505 1505 1507 1507 1509 1509 1510 1510 1512 1513 1514 1515 1514 1514 1514 1515 1515 1515 1516 1517 1518 1520 1521 1523 1528 1530 1530 1534 1541 1547 1548 1548 1550 1550 1553 1554 1555 1558 1561 1561
1507 1503 1502 1502 1502 1501 1502 1503 1504 1502 1502 1504 1504 1504 1505 1507 1509 1511 1511 1512 1512 1513 1512 1511 1511 1511 1512 1511 1513 1514 1517 1517 1521 1522 1525 1529 1529 1536 1544 1547 1547 1549 1551 1552 1553 1554 1557 1561 1561
1503 1502 1500 1499 1499 1498 1499 1499 1501 1497 1499 1499 1500 1501 1502 1504 1507 1508 1508 1509 1510 1509 1509 1508 1507 1507 1508 1508 1508 1510 1514 1514 1517 1520 1523 1528 1532 1534 1536 1536 1544 1545 1547 1551 1552 1554 1557 1560 1560
1501 1502 1498 1495 1494 1495 1495 1499 1497 1492 1495 1496 1497 1496 1498 1500 1503 1503 1504 1505 1505 1505 1505 1505 1505 1505 1506 1506 1506 1505 1509 1511 1512 1515 1521 1522 1527 1532 1532 1535 1538 1542 1543 1548 1551 1553 1556 1558 1559
1503 1502 1509 1488 1487 1488 1495 1502 1490 1489 1487 1486 1491 1493 1494 1496 1497 1498 1500 1499 1498 1498 1500 1502 1500 1501 1502 1502 1504 1506 1505 1508 1509 1511 1516 1520 1523 1526 1529 1532 1535 1535 1531 1544 1549 1551 1554 1557 1559
1506 1514 1506 1495 1480 1484 1490 1496 1485 1485 1485 1485 1487 1488 1490 1491 1494 1494 1495 1495 1494 1494 1494 1495 1496 1496 1497 1499 1501 1504 1504 1507 1510 1510 1513 1518 1521 1524 1528 1531 1535 1536 1539 1540 1548 1552 1555 1555 1558
1509 1509 1499 1498 1486 1485 1490 1488 1481 1480 1482 1482 1482 1484 1487 1486 1490 1491 1491 1489 1488 1487 1486 1487 1488 1490 1492 1494 1496 1499 1501 1505 1509 1508 1511 1515 1519 1522 1524 1528 1532 1534 1537 1540 1548 1553 1557 1556 1558
1494 1497 1499 1489 1482 1486 1487 1483 1479 1474 1474 1475 1478 1480 1482 1482 1485 1485 1484 1483 1481 1481 1481 1481 1483 1485 1487 1490 1493 1494 1497 1501 1506 1507 1509 1513 1515 1517 1519 1523 1528 1532 1532 1538 1544 1550 1556 1558 1560
1494 1495 1494 1485 1479 1481 1481 1480 1473 1468 1465 1466 1470 1476 1477 1479 1481 1481 1481 1481 1480 1479 1479 1478 1479 1479 1481 1486 1489 1493 1496 1499 1503 1503 1506 1508 1510 1510 1513 1517 1522 1528 1532 1536 1543 1545 1550 1558 1560
1489 1489 1490 1491 1482 1480 1481 1480 1471 1461 1461 1462 1468 1471 1474 1476 1478 1480 1481 1481 1479 1478 1476 1475 1475 1473 1476 1481 1485 1490 1494 1496 1500 1500 1501 1503 1504 1505 1508 1511 1517 1523 1529 1532 1539 1543 1545 1554 1560
1492 1480 1481 1484 1489 1502 1483 1506 1475 1464 1465 1464 1466 1468 1471 1474 1478 1481 1482 1482 1479 1478 1475 1474 1474 1474 1476 1479 1482 1487 1490 1493 1496 1497 1497 1497 1498 1500 1503 1507 1513 1518 1525 1529 1535 1540 1545 1551 1556
1480 1476 1479 1481 1488 1492 1487 1503 1476 1462 1468 1466 1465 1467 1470 1474 1477 1480 1482 1480 1479 1477 1475 1473 1473 1474 1477 1479 1481 1484 1487 1489 1492 1492 1491 1491 1492 1494 1498 1502 1508 1511 1519 1525 1532 1537 1543 1546 1555
1469 1476 1481 1484 1495 1511 1486 1491 1478 1464 1454 1460 1463 1466 1468 1472 1475 1480 1481 1479 1479 1477 1475 1474 1475 1475 1477 1480 1481 1484 1487 1489 1488 1488 1488 1488 1489 1490 1493 1496 1502 1510 1516 1524 1531 1536 1541 1545 1553
1469 1487 1521 1511 1521 1511 1474 1484 1466 1446 1443 1445 1455 1462 1466 1470 1474 1478 1479 1479 1478 1477 1476 1475 1477 1478 1478 1481 1483 1484 1486 1486 1485 1485 1486 1486 1486 1489 1490 1494 1495 1509 1516 1525 1531 1535 1541 1547 1549
1473 1480 1510 1513 1518 1502 1474 1482 1456 1442 1442 1444 1451 1457 1464 1469 1473 1476 1478 1478 1478 1478 1477 1476 1477 1478 1479 1481 1482 1484 1485 1484 1483 1483 1484 1484 1485 1488 1491 1497 1500 1509 1515 1523 1531 1535 1541 1545 1549
1470 1477 1471 1485 1488 1501 1485 1461 1449 1446 1448 1450 1453 1457 1462 1466 1471 1474 1476 1477 1478 1477 1477 1477 1477 1478 1479 1480 1482 1483 1484 1484 1483 1482 1481 1481 1483 1487 1492 1497 1503 1511 1516 1523 1529 1534 1539 1543 1546
1454 1457 1481 1487 1496 1496 1478 1467 1454 1452 1449 1450 1452 1454 1460 1464 1469 1473 1474 1476 1476 1477 1478 1478 1478 1478 1479 1480 1480 1481 1483 1484 1484 1482 1481 1479 1482 1489 1493 1499 1505 1511 1518 1522 1528 1533 1536 1541 1544
1454 1459 1459 1467 1477 1486 1478 1461 1430 1432 1437 1441 1448 1451 1456 1461 1467 1471 1473 1474 1475 1476 1477 1478 1479 1479 1479 1480 1480 1481 1482 1483 1484 1485 1486 1486 1488 1492 1497 1502 1507 1514 1518 1522 1529 1533 1536 1539 1542
1432 1437 1446 1472 1468 1467 1468 1456 1421 1424 1429 1436 1443 1449 1454 1459 1466 1469 1471 1473 1474 1475 1476 1478 1479 1480 1480 1480 1480 1481 1483 1483 1484 1487 1488 1489 1493 1495 1499 1503 1508 1512 1516 1520 1525 1530 1535 1538 1540
Wind_Speed
3 1 3 6 4 4 4 4 2 5 4 6 7 3 10 12 4 4 7 7 12 12 9 15 15 13 13 13 11 8 7 6 7 10 12 10 12 11 9 11 12 14 15 15 16 17 20 22 21
4 3 2 1 4 2 5 3 6 6 7 5 8 8 5 3 11 9 4 3 9 11 10 15 15 13 13 12 11 9 8 8 8 9 12 13 11 11 12 11 12 13 14 14 15 16 19 20 19
7 2 1 3 3 4 2 3 5 7 8 4 6 6 5 3 9 5 3 3 13 13 10 10 13 14 13 13 11 10 10 9 9 8 10 15 12 11 12 12 12 12 12 12 12 14 17 20 18
6 3 2 2 6 6 4 4 8 5 3 3 5 6 7 3 5 5 4 1 19 13 9 6 13 13 12 12 12 11 10 10 7 7 7 14 13 10 11 10 11 10 10 9 11 15 19 19 18
4 1 1 2 6 5 2 11 10 4 7 6 3 3 6 6 5 7 11 6 19 13 10 7 11 12 12 12 12 11 10 8 7 7 6 10 14 11 10 10 9 10 10 10 13 18 21 19 17
1 1 1 3 4 6 2 13 11 3 5 5 3 7 4 7 6 9 12 13 12 9 11 10 7 11 13 13 12 12 13 11 9 7 6 9 13 12 10 9 10 11 10 12 16 19 20 21 19
2 3 4 3 5 5 3 12 7 1 3 4 3 4 7 6 8 5 12 17 7 13 11 12 11 12 13 14 14 14 13 13 11 9 6 11 13 12 11 10 11 11 12 15 17 19 22 20 20
0 3 3 4 3 2 2 4 5 6 3 3 1 2 5 4 3 3 3 11 10 3 9 12 12 14 14 15 15 15 14 15 14 11 8 12 13 12 11 12 11 12 13 17 19 20 22 21 17
1 3 3 3 4 2 4 3 2 4 6 6 4 0 10 3 2 2 4 4 5 9 6 10 11 13 12 15 16 16 16 16 17 14 11 9 15 12 11 11 11 12 13 15 17 20 23 22 16
3 3 3 1 1 2 2 5 2 2 4 6 10 9 12 5 3 3 8 5 5 6 7 12 9 9 11 14 16 19 18 20 19 18 17 15 16 14 9 10 11 12 14 16 17 20 22 18 11
4 4 3 6 2 4 6 5 2 4 4 8 2 9 4 4 1 3 1 7 6 6 10 9 15 16 13 17 17 19 20 24 23 25 22 19 15 13 12 10 12 15 13 17 20 22 21 19 9
2 11 12 14 3 2 3 7 8 8 13 13 10 7 5 3 2 7 8 8 6 7 11 11 11 15 20 19 19 18 20 25 26 24 25 21 19 15 11 13 14 13 15 18 22 23 19 20 10
6 6 14 18 11 8 8 10 8 16 18 16 14 16 12 7 8 5 5 8 11 12 11 14 12 13 15 18 21 20 18 21 23 15 22 25 21 10 12 17 19 16 16 22 21 19 22 21 11
7 6 8 12 12 12 9 12 14 12 11 15 16 15 12 8 9 10 11 13 11 11 10 13 15 16 17 17 19 19 18 17 20 20 23 20 15 13 14 22 21 23 21 24 20 20 24 19 21
7 6 7 13 15 8 16 6 9 27 22 24 19 17 13 10 16 20 20 19 15 18 17 14 11 14 14 15 18 17 15 18 17 23 23 19 19 6 20 14 22 25 25 21 21 19 26 21 19
5 4 1 7 8 12 12 9 9 18 18 26 19 18 17 17 24 22 17 16 18 18 19 25 18 10 15 16 18 18 16 18 14 19 18 22 21 15 13 9 18 11 23 31 22 30 25 25 23
3 4 7 7 8 6 7 7 9 9 6 14 18 17 13 18 19 12 10 10 11 12 14 16 23 21 10 15 15 19 17 14 16 16 16 19 25 21 19 17 11 19 23 25 25 26 29 29 24
5 4 6 5 4 4 5 11 9 18 15 20 21 15 11 15 8 5 9 14 20 24 24 25 22 26 23 14 16 18 20 18 16 16 16 17 21 30 27 25 15 22 27 31 29 29 28 30 28
8 6 7 6 4 6 11 10 11 18 18 17 22 19 15 10 4 8 16 21 20 14 10 11 15 18 21 19 17 19 20 21 18 19 19 19 20 21 27 29 23 28 31 24 31 32 28 28 30
10 9 5 5 7 2 5 11 10 10 12 17 25 16 15 8 3 11 13 12 11 11 11 10 12 16 18 20 18 18 17 16 16 20 21 19 19 21 25 29 28 32 29 32 31 36 34 28 30
8 4 4 7 7 4 5 9 8 5 6 20 20 19 11 5 2 4 6 10 10 7 9 10 8 8 19 23 20 18 16 18 17 18 18 20 17 21 24 24 31 36 38 34 35 36 35 31 28
5 7 5 3 2 4 5 6 6 4 5 6 21 19 14 8 5 3 4 5 6 4 5 4 6 8 17 21 20 19 20 18 19 17 19 16 14 20 26 27 33 39 42 36 35 36 35 32 32
7 4 3 0 2 4 2 2 7 3 6 8 10 22 17 11 9 5 1 4 4 3 3 3 6 11 12 16 19 21 21 21 21 17 15 14 11 14 24 33 41 47 44 37 36 35 31 29 32
6 4 2 2 3 3 6 9 5 4 9 8 11 24 20 14 12 7 4 3 2 4 4 7 9 11 11 14 17 17 15 15 17 16 17 16 14 21 18 42 49 46 42 35 33 29 29 28 26
6 7 2 2 1 6 4 5 11 6 10 15 18 25 23 18 16 10 7 4 4 3 5 7 10 10 12 14 15 15 11 9 13 15 17 15 19 23 34 38 45 43 34 36 30 25 27 26 27
7 8 6 6 4 5 5 5 5 2 7 24 28 30 26 21 16 13 9 6 4 4 3 6 9 9 9 12 13 10 9 2 2 8 13 20 20 24 28 32 36 35 38 34 24 25 25 24 28
5 8 7 2 2 2 4 6 3 3 8 16 23 29 27 23 17 15 12 9 7 5 5 5 8 9 10 10 12 12 8 2 3 3 8 19 27 34 35 30 34 34 32 29 25 26 25 21 21
9 6 3 1 3 5 6 5 6 8 11 13 15 22 26 22 19 17 14 12 9 7 4 5 7 9 8 8 10 10 9 6 4 4 7 15 31 32 28 29 29 28 29 28 28 28 26 25 20
5 6 3 5 5 5 3 5 5 18 17 17 14 23 28 25 21 19 16 14 11 9 7 6 8 9 8 6 6 6 7 8 5 4 11 18 16 16 20 21 27 31 29 28 28 27 27 27 24
14 18 15 5 5 5 3 6 3 10 16 20 20 26 29 26 22 21 18 16 14 13 11 10 10 9 10 10 9 9 9 9 11 6 11 15 18 17 19 20 24 27 32 32 31 28 26 25 23
Wind_Direction
233 219 28 337 42 67 266 262 175 75 53 8 10 10 114 42 41 140 115 146 214 215 193 181 175 175 172 171 171 165 168 170 148 144 134 135 131 131 129 121 122 118 114 110 97 100 104 104 98
185 123 32 308 90 69 274 233 88 84 95 32 325 280 82 83 82 113 82 141 219 207 192 188 174 177 175 174 172 170 158 150 144 143 144 128 138 135 132 121 119 121 119 112 100 102 110 110 105
129 101 15 118 170 188 225 83 89 45 59 9 341 9 81 69 95 107 345 150 215 210 196 194 188 180 177 176 174 168 159 150 139 136 143 147 141 141 136 131 126 119 117 114 100 107 120 114 107
119 120 247 88 255 270 270 149 96 35 30 156 320 71 79 35 118 107 42 144 201 205 209 211 203 189 184 178 177 172 168 153 141 138 142 158 152 152 147 138 131 125 123 114 107 118 123 126 117
104 144 70 223 260 254 157 110 88 44 343 76 30 71 78 87 116 121 119 107 181 204 215 231 209 202 194 186 183 178 171 178 160 147 148 162 158 162 160 150 139 129 126 116 119 126 127 127 120
338 182 93 229 267 274 100 119 101 56 319 322 61 93 90 129 88 129 135 151 191 220 234 227 226 220 210 196 190 192 185 193 179 164 152 161 165 167 167 157 148 136 132 121 125 131 127 118 113
131 97 228 250 249 307 111 109 73 165 295 41 78 84 133 160 131 150 162 163 140 196 217 219 215 221 222 215 204 206 199 198 191 180 162 151 154 164 168 170 155 147 141 133 133 131 123 116 113
226 103 271 243 250 271 82 73 93 78 60 25 352 128 171 176 145 197 220 188 200 156 209 216 219 227 228 223 221 211 210 204 196 186 170 158 167 169 170 167 160 154 146 141 138 135 127 115 109
51 57 253 269 15 13 107 110 191 188 253 284 221 167 144 153 321 314 279 298 243 223 207 222 220 222 231 233 226 224 217 211 200 186 169 164 172 172 169 169 167 164 158 147 145 143 135 122 116
133 156 243 329 96 359 59 148 126 137 242 254 252 167 156 157 160 284 262 278 245 239 232 247 243 233 240 246 236 228 223 216 201 189 176 165 169 166 176 180 178 174 166 153 147 148 135 121 134
207 212 248 303 50 7 331 336 256 262 292 281 79 167 153 211 188 233 332 208 268 276 263 245 249 255 254 256 239 232 230 221 202 196 185 176 167 168 184 189 187 180 172 160 150 145 137 130 151
258 239 266 288 210 204 289 299 294 273 237 246 261 195 165 169 184 223 234 241 229 254 269 263 241 248 253 252 245 241 230 234 211 205 195 193 172 191 192 199 187 190 171 158 145 144 139 136 168
226 243 262 287 214 207 243 268 264 278 274 285 224 238 241 204 219 227 239 243 254 270 270 269 279 272 254 251 249 244 232 231 211 220 222 196 167 188 280 243 191 184 181 162 153 145 144 137 164
276 284 295 294 267 220 213 241 240 248 255 260 224 226 234 232 234 238 238 246 260 271 265 256 270 275 271 253 247 244 232 230 219 210 201 199 218 215 233 219 209 183 175 168 168 159 143 147 164
299 289 300 267 255 236 225 277 229 260 263 252 227 210 220 228 223 237 248 261 247 252 257 270 280 277 272 260 254 246 230 221 221 213 198 193 180 163 196 239 235 204 181 167 177 175 162 164 175
303 312 283 269 228 238 191 253 260 263 281 236 219 208 226 235 229 240 248 253 244 248 254 251 253 252 274 280 246 239 233 218 211 219 206 189 183 186 203 231 226 245 193 165 185 159 161 166 168
267 246 215 302 218 148 159 241 250 255 221 202 204 215 237 251 223 214 214 235 247 250 248 243 245 247 252 265 262 226 218 221 212 220 217 208 208 211 221 223 211 200 192 180 180 170 174 163 152
217 242 290 268 274 141 211 246 251 256 257 226 223 213 222 140 156 228 273 291 292 289 282 254 245 247 253 226 258 220 216 212 213 223 230 223 217 222 228 227 214 208 196 178 182 178 175 171 152
243 248 251 272 220 190 229 244 252 250 256 246 222 202 142 145 191 290 305 304 295 293 289 271 266 256 251 225 225 219 211 200 205 223 235 230 230 231 227 226 219 206 192 178 186 180 172 164 167
247 241 273 287 314 291 267 265 261 249 233 238 203 158 139 146 255 312 309 314 330 297 274 269 268 268 250 213 215 222 205 207 214 218 228 235 240 238 235 224 214 202 174 172 171 169 168 169 172
268 221 257 250 281 292 297 296 267 312 144 123 135 134 134 128 9 325 346 347 354 338 300 257 255 262 202 202 209 202 201 211 221 227 232 240 235 238 234 220 202 190 182 177 177 175 171 172 176
251 242 237 263 53 254 83 288 272 250 143 138 139 139 138 125 119 80 27 360 1 342 349 267 223 194 189 198 192 200 197 204 215 232 239 232 228 227 224 219 200 186 186 182 180 180 178 183 177
222 192 173 277 332 341 140 284 273 141 177 178 148 142 140 140 136 114 88 32 15 15 42 132 178 196 192 205 188 193 201 218 231 233 236 234 224 213 215 219 199 185 181 182 181 181 183 185 187
142 107 5 15 90 295 218 179 274 213 190 169 142 149 149 150 134 140 138 96 94 50 92 133 157 164 181 190 195 201 212 234 234 228 222 225 216 216 219 206 195 191 182 179 183 182 189 186 194
104 86 322 344 17 231 269 172 243 285 174 169 157 154 153 155 147 156 169 152 157 119 91 143 167 178 180 188 194 208 211 215 239 244 225 219 217 223 200 188 181 184 176 182 183 183 186 188 183
183 153 166 212 205 253 298 240 257 236 131 144 148 153 155 156 157 169 168 158 119 123 141 135 159 182 170 195 215 206 176 344 268 245 223 224 212 190 169 172 169 168 173 181 191 184 187 189 190
202 204 165 62 273 50 238 290 357 99 102 129 143 150 160 162 167 174 176 166 147 125 116 137 147 155 165 172 183 178 203 105 98 234 215 235 216 178 170 166 168 171 172 174 183 187 184 180 184
152 163 112 105 204 233 268 241 228 189 176 154 160 157 164 164 168 178 178 175 170 158 143 127 140 145 155 174 187 197 212 190 179 138 150 186 165 166 166 175 169 165 170 174 181 186 185 191 198
173 212 194 145 164 190 264 256 224 194 181 176 168 165 169 169 175 182 176 173 174 170 160 151 137 135 141 159 158 180 187 187 186 111 135 126 139 147 169 172 167 176 174 179 190 191 191 197 203
203 205 198 142 231 219 168 270 281 187 176 167 168 169 175 170 177 185 177 175 171 165 159 151 149 141 142 142 152 153 140 158 162 128 165 153 159 163 168 173 181 189 186 187 196 203 209 205 190